STARLINK-31092 (58628 NORAD) Tracking and Keplerian Element Data

This shows tracking and keplerian element data for the satellite.

Feedback or suggestion? Click here.




ElementValue
Catalog58628
NameSTARLINK-31092
Epoch Orbit451
Epoch Day13.25002315
Epoch Year2024
RAAN183.7322
Inclination43.0012
Eccentricity0.0001623
Argument of Perigee264.2673
Mean Anonmoly4.1961
Mean Motion15.52634385
Decay Rate-0.01741634
L11 58628U 23203L 24013.25002315 -.01741634 00000+0 -30936-1 0 9996
L22 58628 43.0012 183.7322 0001623 264.2673 4.1961 15.52634385 4512



Live tracking and technical data element details for STARLINK-31092 (NORAD 58628). STARLINK-31092 can be tracked NOW for your location showing map with azimuth and elevation plus other details from your city location.







IsCatalogInMostPopularTable: catalog: 58628, numindb: 22
Update: records affected: 1



GetName: 58628 STARLINK-31092

Hit Count: updated at: Wed, 17 Apr 2024 02:28:09 GMT